Orbital Elements at Epoch 2459200.5 (2020-Dec-17.0) TDB
Reference: JPL 21 (heliocentric ecliptic J2000)
Element | Value | Uncertainty (1-sigma) | Units |
e | .1308054365664547 | 4.0454e-08 | |
a | 2.234561428441216 | 9.9979e-09 | au |
q | 1.942268645259402 | 8.9903e-08 | au |
i | 6.836926739345815 | 4.4276e-06 | deg |
node | 177.3462735201685 | 3.2424e-05 | deg |
peri | 203.9658403591376 | 3.5399e-05 | deg |
M | 225.157137897707 | 1.4602e-05 | deg |
tp | 2459657.495933009832 (2022-Mar-18.99593301) | 5.0329e-05 | TDB |
period | 1220.075970789869 3.34 | 8.1883e-06 2.242e-08 | d yr |
n | .2950635932670148 | 1.9803e-09 | deg/d |
Q | 2.52685421162303 | 1.1306e-08 | au |
|
| | Orbit Determination Parameters
Additional Information
|